Location: Hamayl? Da??
(36.7028°N, 30.1716°E)
Time: 11:58:45
(UTC+00:00)

Terra - Pass Details

Date: 04 August 2024
Orbit: 690 x 695 km, 98.0° (Epoch: 12 September)

Event Time Altitude Azimuth Distance (km) Brightness Sun altitude
Exits shadow 17:55:18 10° 91° (E) 2,174 3.8 -10.3°
Reaches altitude 10° 17:55:25 10° 90° (E) 2,155 3.8 -10.4°
Maximum altitude 17:57:27 13° 64° (ENE) 1,973 3.8 -10.7°
Drops below altitude 10° 17:59:29 10° 38° (NE) 2,160 4.3 -11.1°
Sets 18:02:58 0° 11° (N) 3,082 5.4 -11.7°
